Regional Weather Roundup
Issued by NWS

Home | Current Version | Previous Version | Text Only | Print | Product List | Glossary On
Versions: 1 2 3 4 5 6 7 8 9 10 11 12 13 14 15 16 17 18 19 20 21 22 23 24 25 26 27 28 29 30 31 32 33 34 35 36 37 38 39 40 41 42 43 44 45 46 47 48 49 50
000
ASUS43 KFSD 172110
RWRSD

WEATHER ROUNDUP FOR SOUTH DAKOTA
NATIONAL WEATHER SERVICE SIOUX FALLS SD
400 PM CDT TUE OCT 17 2017

NOTE: "FAIR" INDICATES FEW OR NO CLOUDS BELOW 12,000 FEET WITH NO
SIGNIFICANT WEATHER AND/OR OBSTRUCTIONS TO VISIBILITY.


SDZ001>005-009-010-012>017-172200-
NORTHWEST AND NORTH CENTRAL SOUTH DAKOTA

CITY           SKY/WX    TMP DP  RH WIND       PRES   REMARKS
BUFFALO          N/A     78  18  10 SW14      29.79F
FAITH            N/A     79  19  10 W13       29.86F
MOBRIDGE       SUNNY     82  28  14 SW12      29.80F
$$

SDZ012>016-024>037-041>051-057-063-072>074-172200-
SOUTHWEST AND SOUTH CENTRAL SOUTH DAKOTA

CITY           SKY/WX    TMP DP  RH WIND       PRES   REMARKS
RAPID CTY ARPT SUNNY     76  27  16 SE14      29.89F
PIERRE         SUNNY     79  36  21 SE8       29.86F
CUSTER         SUNNY     67  17  14 SW13G24   30.01F
ELLSWORTH AFB  SUNNY     77  30  18 SE14      29.88F
PHILIP         SUNNY     80  28  15 S14       29.87F
PINE RIDGE     SUNNY     77  19  11 W12       29.94F
SPEARFISH      FAIR      73  23  15 CALM      29.92F
WINNER         FAIR      79  35  20 S10       29.92F
$$

SDZ004>011-016>023-039-040-172200-
NORTHEAST SOUTH DAKOTA

CITY           SKY/WX    TMP DP  RH WIND       PRES   REMARKS
ABERDEEN       SUNNY     79  35  20 SW13      29.85F
WATERTOWN      SUNNY     73  41  31 SW16      29.89F
BROOKINGS      SUNNY     76  38  25 SW13      29.93F
SISSETON         N/A     77  39  25 SW18      29.83F
$$

SDZ017-020-022-023-036>040-048>070-172200-
SOUTHEAST SOUTH DAKOTA

CITY           SKY/WX    TMP DP  RH WIND       PRES   REMARKS
SIOUX FALLS    SUNNY     77  45  32 SW6       29.95F
HURON          SUNNY     78  40  25 MISG      29.89F
CHAMBERLAIN    SUNNY     81  38  22 SW10G16   29.90F
MITCHELL       SUNNY     80  37  21 SW9       29.92F
YANKTON        SUNNY     78  40  25 S6        29.96F
$$

ABBREVIATIONS USED IN REMARKS
   TC - TEMPERATURE IN CELSIUS
  WCI - WIND CHILL INDEX
   HX - HEAT INDEX
  VSB - VISIBILITY





USA.gov is the U.S. government's official web portal to all federal, state and local government web resources and services.